Tracking 32139 objects as of 18-Nov-2025
HD Live streaming from Space Station
objects crossing your sky now

STARLINK-35215

Track STARLINK-35215 now!
10-day predictions
STARLINK-35215 is classified as:


NORAD ID: 65813
Int'l Code: 2025-218Y
Perigee: 555.1 km
Apogee: 558.1 km
Inclination: 97.6 °
Period: 95.6 minutes
Semi major axis: 6927 km
RCS: Unknown
Launch date: September 26, 2025
Source: United States (US)
Launch site: AIR FORCE WESTERN TEST RANGE (AFWTR)
Your satellite tracking list
Your tracking list is empty




NASA's NSSDC Master Catalog

Two Line Element Set (TLE):
1 65813U 25218Y   25321.50182458 -.00001987  00000-0 -13342-3 0  9990
2 65813  97.6033 182.4452 0002171  87.5805 272.5670 15.05671732  8096
Source of the keplerian elements: AFSPC